RH
2 2 2 3 3 3 4 5 7 8 9 13 15 18 22 25 28 32 35 39 41 40 39 37 34 32 31 29 27 26 23 21 20 18 17 16 15 14 13 13 13 11 11 11 10 10 11 11 11 11 10 9 9 9 9 9 9 9 9 10 10 10 10 9 8 7 6 5 5 5 5 6 4 7 8 5 4 5 8 11 14 18 17 14 17 22 24 23
3 3 3 3 3 4 5 6 7 10 11 15 19 22 25 30 36 41 44 46 47 46 44 42 40 38 36 33 31 30 28 26 23 21 20 19 18 17 16 15 15 14 13 12 12 12 12 13 13 12 11 10 10 9 10 10 10 10 10 12 12 11 10 9 8 6 6 5 5 5 6 6 4 9 10 11 16 7 4 11 10 12 14 16 22 25 24 20
4 5 5 4 4 4 6 7 8 11 13 16 20 25 29 34 40 46 50 53 53 51 49 46 45 43 40 37 35 33 31 28 26 25 24 22 21 20 19 18 17 16 15 15 14 14 13 14 13 13 12 11 11 10 11 11 11 12 12 14 14 12 11 10 8 7 7 6 6 6 6 7 5 8 6 16 36 25 11 18 20 19 18 18 22 22 20 18
6 7 7 7 7 6 6 7 8 11 14 17 20 25 31 37 42 47 52 56 57 55 52 51 49 47 44 41 38 35 33 31 28 26 26 24 23 22 21 20 19 18 17 17 16 15 14 14 14 14 13 12 11 11 11 11 12 12 13 15 14 13 13 11 9 8 8 7 7 7 7 8 6 8 5 8 32 42 38 39 38 36 33 27 23 19 19 19
8 9 9 9 8 8 8 9 9 11 13 17 20 22 28 35 41 47 52 56 58 58 57 54 53 52 49 46 42 39 36 32 29 27 27 26 25 24 23 22 21 20 19 19 18 17 16 15 15 14 13 13 12 12 12 12 13 13 15 15 14 14 14 12 10 9 9 8 8 8 8 9 7 8 8 6 19 33 39 41 38 33 32 31 24 20 22 24
10 11 11 10 9 9 10 10 11 12 13 15 19 21 24 29 37 44 50 55 58 60 61 58 56 55 53 51 48 45 41 35 30 28 27 26 26 26 25 24 22 22 21 20 19 18 17 16 16 15 14 13 13 13 13 13 14 15 16 15 14 15 15 13 11 11 11 10 9 9 8 10 9 9 8 8 14 16 17 24 23 19 21 25 23 23 26 28
12 13 12 12 11 10 10 11 12 13 14 14 16 20 22 25 31 40 47 52 56 59 62 62 60 58 57 54 51 48 44 40 34 30 28 27 27 26 25 24 23 22 21 20 19 19 18 17 16 15 15 14 14 14 13 14 15 16 17 16 15 15 15 14 12 13 13 11 10 10 10 10 10 10 10 9 10 9 10 13 14 17 22 24 25 28 30 32
13 14 15 15 14 13 12 12 12 13 14 15 15 18 21 23 26 35 45 50 53 56 59 62 63 63 62 57 52 49 45 42 40 36 31 29 28 27 26 25 24 23 21 21 19 19 18 17 17 16 16 14 14 14 13 14 15 16 17 16 16 16 15 14 13 14 14 13 11 10 11 11 11 11 11 11 10 10 11 13 16 21 25 28 30 31 33 34
15 16 17 18 18 18 17 16 14 13 14 15 15 16 18 21 23 29 40 49 52 54 55 58 62 64 63 58 53 50 45 44 43 41 36 32 29 29 27 26 25 23 21 20 19 18 17 16 16 15 15 14 14 14 13 14 15 15 17 16 16 17 16 14 15 15 14 13 12 12 13 12 12 13 13 12 12 12 13 15 19 24 28 33 35 35 36 35
16 18 19 21 21 22 22 21 20 17 15 15 16 16 16 19 22 25 34 45 52 54 55 55 57 60 60 58 55 50 45 43 43 43 42 36 31 29 29 27 25 24 22 20 19 18 17 16 15 14 14 14 14 13 13 14 13 14 16 15 17 18 16 15 16 15 14 14 13 14 14 13 13 14 15 13 13 13 13 15 17 21 27 32 34 36 38 36
14 17 19 22 24 24 24 25 25 23 19 16 16 17 17 17 20 23 28 40 52 56 57 58 58 58 58 57 55 52 47 44 42 42 43 39 34 30 29 28 25 23 21 20 18 17 16 15 14 13 13 13 13 12 13 13 13 14 15 15 17 18 17 16 16 16 15 16 15 15 15 14 14 15 16 14 14 14 14 15 16 19 22 24 26 26 27 27
13 15 17 19 22 24 25 26 28 28 26 21 18 17 19 19 19 22 25 35 50 57 59 62 63 62 63 60 56 53 50 47 45 42 41 40 37 32 30 28 25 23 21 19 17 16 15 14 13 12 12 12 12 12 11 12 12 13 14 15 17 18 18 17 16 17 17 17 17 16 16 16 16 17 16 15 16 16 16 17 17 18 19 19 18 18 20 21
13 14 15 16 17 21 26 29 29 30 31 27 22 19 20 21 20 21 23 29 44 58 61 64 67 66 66 64 60 56 51 48 47 44 41 40 38 35 31 28 25 22 20 18 17 15 13 12 11 11 11 11 11 11 11 11 11 12 13 14 16 18 19 18 17 17 18 18 18 18 18 18 18 17 17 17 17 17 17 18 18 18 18 17 17 17 19 20
12 14 14 15 16 19 25 31 33 32 32 32 29 24 22 22 22 23 23 26 41 58 63 64 67 67 67 65 62 61 55 51 49 45 44 43 40 36 31 26 22 21 19 17 15 13 11 10 10 10 10 10 11 11 11 10 11 11 12 13 15 18 19 19 18 18 18 18 19 19 19 20 21 18 18 19 18 18 19 19 19 18 18 17 17 18 18 19
12 13 14 15 16 19 23 30 36 35 32 33 33 30 27 25 24 25 25 26 38 57 65 67 67 67 69 65 60 60 58 55 51 47 46 44 41 36 30 23 20 18 17 15 14 12 11 10 9 9 9 10 11 11 11 11 11 11 11 13 15 17 19 19 19 19 19 19 19 20 19 22 23 19 19 19 17 18 20 20 19 18 18 18 18 18 19 20
13 13 13 15 16 18 21 26 34 38 35 33 34 35 33 30 28 26 27 27 36 53 65 68 67 67 68 66 61 59 56 54 51 49 47 43 39 33 25 20 18 16 15 15 14 12 10 10 10 9 10 10 11 12 12 11 11 11 11 13 14 16 19 19 20 20 20 19 19 20 19 22 22 19 20 20 18 19 20 20 20 20 19 19 19 19 20 20
13 13 13 14 15 17 20 24 29 37 39 35 32 35 37 36 33 29 28 28 33 49 64 69 68 68 67 63 59 57 55 52 50 49 46 41 35 26 19 17 16 16 16 15 14 12 10 10 10 10 10 10 11 13 13 11 11 11 11 12 13 16 18 19 20 20 20 20 19 20 20 21 20 19 20 20 19 20 20 21 20 21 21 20 20 21 21 21
12 13 13 14 15 16 18 22 26 33 40 39 34 34 38 40 38 34 31 30 33 47 63 69 69 67 64 59 55 54 53 51 49 47 44 37 28 19 16 16 16 16 16 16 14 13 11 11 10 10 10 10 12 14 14 13 12 11 12 12 13 15 17 19 19 19 19 19 19 19 19 20 20 19 20 20 20 20 20 21 21 20 21 21 21 21 21 21
12 12 12 13 14 15 17 20 23 28 35 41 38 34 36 40 41 39 36 34 37 50 61 64 65 63 60 57 54 51 50 49 47 43 39 31 22 17 16 16 17 17 17 16 15 13 12 11 10 10 10 10 12 14 15 14 12 12 12 12 13 15 16 18 18 18 18 18 19 19 19 19 19 19 20 19 20 20 20 20 20 21 20 20 21 20 21 21
12 12 11 11 12 14 16 17 20 23 28 38 43 39 36 38 40 40 39 37 39 49 60 62 61 60 58 55 52 49 47 46 43 38 31 23 18 17 17 17 18 17 18 17 16 14 13 11 10 10 10 11 11 12 13 13 14 14 12 13 13 14 16 17 17 17 17 18 18 18 18 19 19 19 19 19 19 19 20 20 19 20 19 18 19 20 20 20
11 11 10 10 10 11 13 15 17 21 24 32 42 46 43 39 38 39 40 40 42 49 58 62 60 58 57 54 50 47 44 41 37 31 24 19 17 18 18 19 18 18 19 18 17 16 13 12 11 10 10 10 10 11 11 12 14 14 15 15 14 15 16 16 16 17 17 17 17 17 18 19 19 18 18 18 19 18 18 20 19 17 16 16 17 19 20 18
9 9 9 9 10 10 11 13 14 17 21 26 36 48 52 45 38 38 39 40 43 48 53 57 59 57 57 54 48 44 41 37 31 24 19 18 18 19 20 20 19 19 19 19 18 16 14 13 11 10 10 9 9 10 10 11 12 13 14 15 15 17 16 15 16 16 17 16 16 17 17 18 17 17 18 17 17 19 18 16 15 14 13 14 16 18 18 17
9 10 10 10 10 10 10 11 12 13 17 22 30 43 53 52 44 39 39 39 40 44 45 46 50 53 55 53 47 42 36 29 23 19 18 20 21 21 21 21 20 20 20 20 19 17 15 13 13 12 10 9 9 9 10 10 10 11 11 12 14 14 14 20 19 14 15 15 15 17 16 18 18 15 16 17 16 15 15 14 13 12 12 14 16 18 18 19
18 18 18 16 15 13 11 11 11 11 13 17 25 36 45 50 50 45 41 41 39 40 41 38 41 47 48 45 42 38 30 22 19 18 19 21 22 22 22 22 21 21 22 22 21 19 17 15 15 13 11 11 10 9 9 9 9 10 10 10 12 11 12 19 19 14 12 13 14 15 16 19 19 18 16 16 18 18 19 22 19 17 16 17 18 20 24 29
31 30 28 26 24 20 15 13 12 11 11 12 19 30 38 41 47 50 48 47 43 40 38 35 36 41 43 39 35 33 28 20 16 18 22 23 23 24 22 22 23 23 24 23 23 21 19 17 16 14 13 12 11 11 9 9 9 9 9 9 10 10 10 11 12 9 11 16 15 14 24 26 16 19 23 21 25 29 31 36 32 27 27 28 30 35 44 52
36 36 35 34 32 29 24 18 14 13 12 12 14 22 32 35 40 47 49 53 52 44 38 35 33 35 37 35 31 31 27 20 17 20 23 24 23 24 23 23 23 23 24 24 23 22 21 20 18 16 15 13 12 12 10 11 9 8 10 10 9 10 9 10 9 10 22 35 26 15 34 46 29 22 29 30 34 36 39 44 40 35 39 43 46 54 61 62
39 39 38 38 37 35 32 24 20 17 15 14 13 17 25 29 33 40 45 53 56 50 42 37 34 34 36 33 30 31 26 21 20 21 24 25 25 24 24 25 25 25 25 24 23 23 22 21 19 18 16 14 14 12 12 12 10 16 19 12 9 9 10 10 7 13 32 43 36 21 28 51 50 34 34 38 40 40 41 46 45 44 53 57 57 59 59 57
41 41 40 40 39 38 37 32 27 22 18 16 15 16 21 25 30 35 41 49 53 52 48 41 36 35 36 36 34 31 26 23 23 24 25 25 26 26 25 25 25 26 26 25 25 24 23 22 21 20 17 16 15 13 14 11 12 23 22 12 11 10 10 10 8 16 25 28 41 40 23 41 63 50 43 48 46 46 48 49 52 55 61 62 60 60 58 55
40 41 41 41 40 40 40 38 35 28 21 18 15 15 18 20 27 34 40 44 48 53 54 49 44 39 37 37 37 36 31 25 24 25 27 26 26 27 26 26 25 25 26 26 26 24 23 22 21 22 19 18 17 15 14 12 16 23 16 10 12 11 11 11 13 22 21 17 39 54 35 43 69 62 52 54 49 50 56 57 59 61 63 63 61 60 58 54
36 37 39 39 40 41 41 40 39 34 27 22 18 16 17 19 26 35 39 39 42 48 53 54 53 49 45 40 38 40 38 32 27 25 25 26 28 27 27 27 25 26 27 26 26 24 24 23 23 23 22 20 18 16 16 13 16 19 14 12 12 12 11 11 17 28 32 28 35 49 43 42 66 73 61 57 54 55 61 64 65 67 67 66 64 61 59 58
30 31 33 35 37 38 39 40 41 40 34 27 22 19 19 23 27 32 34 34 37 42 47 51 53 53 56 53 46 42 42 41 36 31 27 26 27 26 27 26 25 26 27 27 27 26 25 24 24 24 23 24 21 19 18 15 16 15 13 13 13 16 14 17 36 38 35 43 43 47 45 35 57 78 69 64 63 61 65 68 70 72 68 66 67 67 64 61
20 22 25 29 32 33 35 37 41 43 39 32 26 22 23 26 25 24 29 34 36 39 43 48 51 52 54 60 62 56 48 44 42 40 37 34 31 28 27 27 26 27 28 30 29 29 30 28 28 27 25 26 24 24 22 19 18 15 16 20 23 36 31 23 42 42 30 45 52 51 48 36 50 70 67 69 70 62 62 66 69 71 70 70 73 74 74 69
9 11 13 17 23 27 29 33 39 43 44 38 30 25 25 26 23 23 34 43 41 39 41 45 50 52 50 55 66 71 66 56 49 45 42 41 41 38 34 31 29 29 31 34 32 31 34 32 31 31 30 29 27 28 28 25 25 19 22 29 31 52 54 24 29 45 41 49 52 46 47 43 49 56 55 64 71 66 65 64 66 69 73 77 78 78 80 77
4 5 5 6 9 14 19 27 34 41 46 46 39 31 27 26 24 26 37 47 49 47 46 46 48 52 53 52 57 69 77 73 63 54 48 45 44 44 43 40 36 33 33 36 37 34 35 39 40 35 33 34 31 31 32 34 40 33 30 36 36 56 68 45 43 57 53 51 49 41 41 44 50 54 55 62 65 64 66 65 65 69 72 75 76 75 77 77
4 4 4 4 4 5 7 14 24 35 44 49 46 39 33 28 25 28 39 48 54 56 52 50 50 51 54 54 53 58 69 78 79 73 63 54 49 47 47 48 47 43 39 40 43 38 36 46 51 44 41 40 37 38 34 34 48 49 36 34 38 49 57 50 49 54 51 53 52 43 37 34 40 51 61 70 68 64 66 67 67 69 70 71 72 74 78 81
4 4 4 4 4 4 4 5 9 19 34 46 49 45 40 32 22 25 38 46 55 60 57 54 53 53 54 57 58 53 58 73 82 85 83 74 67 61 56 57 58 58 55 51 52 50 47 52 52 48 49 46 42 43 39 36 53 66 55 40 35 40 44 45 45 41 39 45 47 44 42 37 34 41 52 65 73 74 75 74 73 73 72 73 74 77 82 85
5 4 4 4 4 4 4 4 4 6 16 31 41 43 46 41 26 21 31 42 51 58 60 56 52 54 55 58 64 58 56 67 72 79 89 89 86 80 72 70 69 70 71 68 74 75 68 70 69 57 52 50 49 49 45 42 49 67 76 65 51 47 43 44 48 46 41 40 39 39 44 44 41 43 47 54 67 78 83 82 81 78 76 75 76 78 81 82
5 4 4 4 4 4 4 4 4 4 5 12 23 36 49 51 35 19 21 35 46 52 57 57 53 54 52 55 71 69 59 68 71 68 76 84 90 93 90 85 80 79 78 76 86 89 80 85 91 78 61 54 53 53 53 50 44 52 68 70 66 66 57 46 44 45 44 45 43 39 39 45 48 51 54 57 64 73 79 81 81 80 78 76 76 77 77 74
5 5 5 4 4 4 4 4 4 4 4 3 8 20 40 57 49 26 16 24 37 45 51 55 54 52 49 51 67 71 67 77 78 69 74 79 82 88 91 93 91 88 84 78 81 87 84 87 96 94 80 68 61 56 58 61 54 48 52 57 62 68 70 67 59 53 52 55 55 47 40 44 51 55 58 59 59 59 59 61 63 64 62 61 59 58 55 51
5 4 4 4 4 4 4 4 4 4 4 4 4 6 21 49 58 38 18 16 27 36 43 53 55 52 49 47 54 62 70 78 72 68 82 85 79 81 85 92 98 96 93 85 77 81 85 85 92 97 90 81 77 70 66 70 69 60 55 54 55 55 58 65 66 65 67 71 73 63 48 48 56 59 57 52 47 45 42 41 41 41 39 38 37 36 35 34
5 5 5 5 5 5 5 5 4 3 4 3 4 3 7 33 58 50 25 12 19 27 34 45 52 53 50 46 47 53 62 70 67 65 78 84 86 90 87 88 95 98 100 97 87 84 84 85 92 96 93 91 89 82 75 75 75 75 74 70 66 65 62 59 59 59 60 65 74 73 63 61 67 64 54 47 45 44 42 40 38 37 36 35 33 32 33 34
7 6 6 6 6 6 5 6 7 6 5 4 4 5 2 16 48 58 35 15 14 19 25 33 43 53 54 47 47 49 50 60 68 68 70 74 84 94 92 90 93 95 99 99 95 92 89 92 97 96 95 94 89 84 82 79 75 76 79 80 79 79 76 71 70 67 61 56 59 66 73 76 78 72 60 55 57 54 50 47 43 41 38 35 34 34 34 36
7 8 8 7 6 7 6 9 14 10 5 4 5 6 3 7 36 58 45 21 14 15 18 23 31 44 53 50 47 46 44 50 60 66 71 72 76 82 85 91 96 98 99 97 97 98 95 96 98 95 94 91 86 87 87 84 83 80 76 74 75 79 79 79 82 80 78 72 61 63 76 77 75 75 71 66 65 61 55 50 45 40 37 34 35 39 42 42
10 9 8 8 7 7 6 7 14 14 10 13 14 11 5 1 20 53 53 28 17 16 15 19 22 30 45 51 47 45 45 47 50 59 72 76 75 74 73 77 85 93 99 99 99 99 92 90 96 99 97 91 89 91 88 86 88 85 79 74 72 74 73 71 73 74 79 82 75 74 80 77 73 75 76 73 69 65 60 55 50 46 42 35 32 39 50 56
11 8 10 12 7 7 8 6 10 14 12 17 24 25 22 10 10 42 61 40 20 17 16 17 18 19 29 42 47 46 45 47 47 52 64 72 72 72 72 74 77 81 88 94 97 98 93 90 97 101 95 91 94 93 89 89 86 80 79 78 75 75 71 67 68 66 66 68 69 74 80 83 85 83 79 75 72 69 67 62 58 55 50 43 33 30 37 48
10 12 11 8 7 8 7 4 6 10 10 10 18 25 26 19 14 35 61 51 27 18 18 18 19 17 19 28 39 44 44 46 51 53 58 64 67 71 76 79 80 77 77 82 86 93 96 93 94 94 87 86 94 94 91 92 88 81 81 82 79 77 74 71 69 69 70 67 67 75 81 87 93 90 83 78 75 74 73 68 62 56 53 50 41 32 29 33
11 15 6 12 41 47 26 14 8 5 8 7 10 17 13 10 19 38 58 58 35 19 18 19 20 19 17 19 27 38 43 45 49 53 57 61 65 71 77 82 86 84 79 77 77 84 94 95 94 93 89 88 95 97 98 99 95 90 87 86 85 81 76 74 70 71 78 79 77 83 89 92 91 87 83 80 78 77 75 70 63 55 51 51 46 39 38 40
12 13 5 27 84 98 68 51 34 19 27 23 9 14 13 9 26 47 60 61 41 22 18 19 20 21 19 17 17 26 37 43 47 51 55 59 63 68 73 77 81 83 82 82 79 81 89 93 96 99 98 98 100 101 102 102 98 95 91 87 86 86 83 80 74 72 77 79 79 83 89 94 93 88 85 82 80 79 78 74 66 56 50 50 48 43 43 47
12 12 6 25 84 109 78 59 48 39 59 61 29 16 22 30 48 62 63 58 41 25 19 19 21 22 20 18 15 16 24 34 41 46 50 55 60 64 68 69 72 79 84 84 81 78 81 90 98 101 100 100 100 101 102 97 91 93 94 90 87 87 87 86 83 80 79 78 78 78 81 90 97 97 92 88 84 82 81 78 71 60 52 48 47 46 45 46
11 13 8 14 63 92 60 49 65 64 73 80 50 27 35 51 65 71 65 53 37 25 22 22 23 23 22 21 18 15 16 21 29 39 45 51 55 58 60 61 71 87 96 98 94 84 81 91 99 100 100 101 99 100 102 95 88 92 96 93 89 87 87 87 86 84 83 81 78 74 74 82 93 100 100 96 92 89 86 83 77 68 59 50 44 42 41 42
10 13 11 11 41 64 55 68 98 95 87 85 56 35 50 68 72 69 62 51 38 28 24 22 22 23 25 26 24 20 17 16 20 27 35 43 49 54 58 60 69 84 91 95 98 94 90 96 101 100 99 100 99 100 101 98 96 97 96 94 96 96 95 96 94 90 87 86 83 81 81 83 88 96 101 101 99 96 93 90 85 77 68 57 48 40 36 36
12 11 12 13 26 43 62 89 103 98 99 94 63 43 55 71 74 69 60 52 43 33 27 24 25 25 26 28 30 27 21 18 21 25 29 36 38 40 47 53 62 75 83 87 93 97 96 95 95 94 93 95 96 96 97 100 101 97 92 95 100 97 92 93 96 95 91 90 91 91 90 90 89 93 98 101 101 101 98 95 90 86 78 69 60 50 43 39
Wind_Speed
30 30 30 30 30 29 28 28 28 28 28 27 26 25 25 24 24 23 23 23 23 23 23 24 24 24 25 26 27 28 29 30 30 31 31 31 31 30 31 30 30 30 29 29 28 27 26 24 23 23 24 24 24 23 22 22 21 21 20 18 16 17 18 19 22 24 26 25 22 21 21 21 21 20 21 22 23 23 24 26 26 26 26 27 27 27 27 27
29 29 29 29 29 29 28 27 27 27 27 28 27 26 25 24 24 23 23 23 22 22 22 22 22 22 23 24 24 25 26 27 28 28 28 28 28 28 28 28 28 28 28 27 26 25 24 23 22 22 23 23 23 23 23 22 22 21 19 17 16 17 19 20 23 24 24 23 21 21 20 20 21 20 20 20 22 23 24 25 27 27 28 28 27 27 27 26
26 26 26 26 26 27 27 27 27 27 27 27 28 27 26 25 24 24 24 23 22 22 22 21 21 21 21 22 23 23 24 25 26 26 26 26 26 26 26 26 26 26 26 25 25 24 24 23 22 22 23 23 23 24 23 23 22 22 19 17 17 19 19 20 22 23 23 21 20 19 19 20 20 20 20 19 19 21 22 23 25 27 28 29 28 28 27 26
25 24 24 24 24 24 25 26 27 27 27 27 27 28 27 26 25 25 24 24 23 23 22 21 21 20 20 21 21 22 23 24 24 24 24 24 24 24 24 24 24 25 25 24 24 24 24 23 22 22 23 24 24 24 24 23 23 22 19 18 19 19 19 21 22 23 22 20 19 18 17 19 19 19 20 18 17 19 20 21 23 24 26 28 28 27 26 26
23 23 23 23 23 23 23 24 26 26 27 27 27 28 29 28 27 26 26 25 24 23 22 22 21 20 20 20 20 21 22 24 24 24 24 24 23 23 23 23 23 24 24 24 24 24 23 23 22 23 24 25 24 24 25 23 23 21 19 20 19 19 21 22 22 23 22 19 18 17 16 17 17 18 19 18 19 20 21 22 23 24 25 27 27 27 26 27
22 22 22 22 22 22 22 23 24 25 26 27 27 27 28 29 29 27 27 26 25 24 23 22 22 21 21 21 21 21 22 24 23 23 24 23 23 23 23 23 23 24 23 24 23 23 23 23 23 23 24 25 24 25 26 24 23 21 21 21 20 22 22 22 23 23 21 19 18 18 17 16 17 18 18 19 22 21 21 23 24 25 26 26 25 24 24 25
21 21 21 21 21 22 22 22 23 23 25 26 27 27 27 28 29 29 28 27 27 26 24 24 23 22 22 23 23 23 23 23 22 22 23 23 23 23 23 24 24 24 24 24 23 23 23 23 23 24 25 26 26 27 26 25 25 24 22 21 22 23 23 24 24 22 20 19 19 19 17 17 17 18 19 20 21 20 22 24 24 24 24 23 22 21 22 24
20 20 20 20 20 21 21 22 22 23 24 25 26 27 27 28 29 30 29 28 28 27 26 25 24 23 24 24 25 25 25 24 22 22 22 22 22 22 23 23 24 24 24 24 24 24 24 24 25 25 26 27 27 27 27 26 27 25 23 22 23 23 24 25 23 21 20 21 21 19 18 18 18 18 19 20 19 20 21 22 22 22 22 20 20 20 21 24
20 20 20 19 19 20 20 21 22 22 23 24 25 26 27 27 28 29 29 29 28 28 27 26 26 25 25 26 26 27 27 25 24 23 22 22 22 22 23 23 23 23 23 23 23 24 25 25 26 26 28 27 27 28 28 28 29 26 24 25 24 24 25 25 23 21 21 21 21 20 19 19 18 18 18 18 18 20 21 21 21 21 20 20 19 20 23 26
19 19 20 19 19 19 19 20 20 21 23 24 25 25 26 27 27 27 28 29 28 28 27 27 26 26 27 27 27 27 27 26 26 25 23 23 23 23 23 23 23 23 23 23 23 24 25 26 26 26 27 27 28 28 28 29 29 26 26 26 25 24 25 24 23 21 21 21 21 21 20 20 19 17 18 17 18 20 20 20 20 20 20 19 19 21 24 27
19 19 19 19 19 19 19 19 20 20 22 23 24 25 26 26 27 27 27 28 28 28 27 27 26 26 27 27 27 27 26 25 26 27 26 23 23 24 24 23 23 24 23 23 24 24 25 25 25 25 26 26 27 28 28 29 28 26 27 26 25 24 24 24 23 21 21 22 22 22 21 21 19 18 18 17 17 19 18 19 19 19 20 19 20 22 25 26
19 19 20 20 20 20 19 19 20 20 21 21 23 24 25 26 26 27 26 27 27 27 27 26 26 26 26 26 26 26 25 25 26 27 27 25 24 24 24 24 24 24 23 23 23 23 23 23 24 25 26 25 27 28 28 29 28 27 27 26 26 25 25 24 23 22 22 23 22 22 21 21 19 18 18 17 17 19 18 18 18 18 18 18 20 22 23 25
19 19 20 20 20 20 19 19 20 20 20 21 21 22 23 24 25 26 26 26 26 27 26 26 25 25 25 26 25 25 26 26 26 26 25 25 25 24 24 24 24 24 23 22 22 22 22 22 24 24 25 25 27 28 27 28 28 28 27 27 27 26 26 25 23 22 22 23 22 22 23 21 21 20 19 18 18 19 19 18 18 18 17 18 20 21 22 24
19 19 20 20 20 19 19 19 20 20 21 21 20 21 21 22 23 25 26 26 25 26 26 25 25 24 25 25 25 25 26 26 25 25 24 24 24 24 24 24 24 23 22 22 21 21 21 22 23 24 25 26 27 27 27 27 28 28 28 28 28 27 28 26 24 23 23 23 23 24 24 22 23 22 20 20 20 21 20 19 18 18 17 18 19 20 22 24
20 19 19 19 20 20 19 19 20 20 21 21 20 20 20 20 22 23 25 25 25 25 25 25 24 24 25 25 24 25 26 26 24 23 23 24 24 23 23 23 23 22 21 21 21 20 21 22 23 24 25 25 26 26 27 27 27 28 27 28 29 28 29 27 24 25 25 26 26 26 24 23 26 23 20 22 21 21 20 19 19 18 18 18 19 20 22 24
20 20 20 19 19 20 20 20 19 20 20 20 20 19 18 19 20 22 23 24 24 24 24 24 24 24 25 25 24 25 26 25 24 23 23 23 23 23 23 23 22 21 21 20 20 20 20 21 22 23 23 24 25 25 27 27 27 27 26 29 30 29 30 27 26 28 29 28 27 26 25 26 28 23 21 24 23 22 21 20 20 19 19 19 19 21 23 24
21 20 20 20 19 20 20 20 20 19 20 20 19 18 18 18 20 21 22 23 24 24 24 24 24 24 25 25 24 25 24 23 23 23 23 23 23 23 22 22 21 20 20 20 19 19 19 19 20 21 23 23 24 25 26 26 26 26 26 28 29 30 30 29 29 30 30 30 28 28 27 28 28 23 23 25 24 23 23 23 22 21 21 21 21 23 25 26
22 21 21 20 20 20 20 20 20 19 19 19 19 18 18 18 19 20 21 23 24 24 24 24 24 25 25 24 24 24 23 22 22 23 23 23 23 22 21 21 20 20 19 19 18 18 17 18 19 20 21 22 23 23 24 25 26 26 27 29 29 30 31 31 32 32 31 31 30 29 28 27 26 24 25 26 25 25 25 25 24 24 23 23 24 25 26 27
23 22 22 21 21 21 21 20 20 20 19 18 18 18 18 18 19 19 20 22 23 23 24 23 24 25 25 24 24 23 23 22 22 22 22 22 22 21 21 20 20 19 19 18 18 18 17 18 19 19 20 21 22 23 25 26 27 27 29 29 29 30 31 32 34 32 31 30 29 29 27 25 25 25 27 28 27 27 26 26 25 25 25 25 26 26 26 27
23 23 22 22 22 22 22 21 21 20 20 19 18 18 18 19 19 19 19 21 22 22 23 23 23 25 24 24 23 23 22 22 22 22 22 22 21 21 21 20 20 20 19 18 18 17 17 18 18 19 20 21 23 24 25 25 25 26 27 28 29 30 30 33 33 30 29 29 28 28 26 25 26 27 27 28 28 27 26 26 26 25 25 26 25 25 27 27
23 22 22 21 21 22 22 22 22 21 20 19 18 18 19 20 20 19 18 20 21 21 22 23 24 25 25 24 23 22 22 21 21 22 21 21 21 20 20 20 20 20 19 18 17 17 18 17 18 20 21 22 22 23 23 23 24 24 24 25 27 27 29 31 30 28 28 27 27 26 24 25 27 27 27 27 27 27 26 26 25 24 25 25 24 25 26 25
22 22 21 21 21 21 22 23 23 22 21 20 19 18 19 20 20 19 18 20 21 20 22 23 24 25 25 23 22 22 21 21 21 21 21 21 21 20 20 20 20 20 19 19 18 17 18 19 20 21 21 20 21 21 22 22 22 21 22 23 23 24 27 28 27 27 26 26 26 24 24 26 26 25 25 25 25 24 24 24 23 24 24 24 24 24 24 23
21 21 21 21 20 20 22 23 23 23 22 21 20 19 20 21 20 19 18 19 21 20 20 22 24 25 24 22 22 21 21 21 21 21 21 21 21 21 21 20 21 20 19 18 18 17 19 21 21 19 18 18 19 20 21 21 20 20 20 20 21 22 23 23 24 26 25 24 23 22 23 25 24 24 23 22 22 21 20 20 21 23 24 23 23 23 23 20
21 21 21 21 21 20 21 23 23 23 23 23 21 21 21 21 20 19 19 19 21 20 18 20 23 24 23 21 21 21 21 21 21 22 22 22 22 21 20 20 20 19 18 18 18 19 21 21 19 17 18 18 18 19 19 19 18 18 18 18 20 21 22 23 24 24 23 21 20 20 22 23 22 21 20 19 18 18 17 18 20 22 22 22 21 20 19 16
22 22 22 22 22 21 21 23 23 23 24 24 23 23 23 23 20 19 19 19 20 21 19 20 22 22 21 20 20 21 20 21 22 23 22 22 21 20 20 19 19 18 18 19 19 21 21 18 17 17 17 17 17 18 18 17 16 16 16 17 19 20 21 23 22 20 20 19 18 19 20 21 21 19 18 17 17 16 16 17 18 19 18 18 17 15 14 13
24 24 24 24 24 23 22 23 23 24 24 24 24 24 25 25 22 20 20 19 20 21 20 20 21 21 20 20 20 21 21 22 23 24 23 23 22 20 19 19 19 18 18 19 20 21 19 17 16 16 16 16 16 16 16 16 15 15 16 17 18 19 20 21 20 18 16 16 17 19 18 18 19 18 17 17 17 17 16 17 18 17 15 15 14 14 14 14
26 26 26 26 25 25 24 23 24 25 25 24 24 25 26 26 24 22 21 20 20 21 21 20 20 20 21 20 20 21 22 23 24 25 24 23 22 21 20 18 18 18 18 19 19 19 17 16 16 15 15 14 14 15 15 15 14 14 16 17 17 18 19 19 18 17 15 14 16 19 19 18 18 18 17 17 16 16 16 17 18 16 15 15 15 15 16 17
28 27 27 27 27 26 25 25 25 25 25 25 25 25 27 27 26 24 23 22 21 20 21 21 20 20 20 20 20 22 22 23 24 25 25 24 23 22 21 20 19 19 19 18 18 18 17 17 16 15 14 14 15 16 15 16 16 15 16 17 17 18 18 18 17 16 16 15 16 19 21 19 18 18 17 17 17 16 16 18 17 16 16 16 17 18 19 19
28 28 28 28 28 27 26 26 27 26 25 25 26 26 27 28 27 25 25 24 21 19 20 21 21 21 20 20 21 22 23 24 25 26 27 26 24 23 21 20 21 20 19 20 20 20 19 19 17 16 16 16 16 16 16 17 17 16 16 17 18 18 18 17 16 15 16 17 18 19 19 18 19 19 17 18 19 19 19 19 18 17 17 17 18 19 19 19
28 27 28 28 28 28 27 28 28 27 25 26 27 27 27 28 27 27 27 25 22 21 20 20 21 21 21 20 21 22 24 25 26 26 28 27 25 24 23 22 22 21 20 21 22 20 19 19 18 17 17 16 16 16 16 17 16 16 17 17 17 17 17 16 15 15 16 17 19 18 18 19 19 18 19 20 20 20 20 20 20 18 18 17 18 18 17 17
26 26 26 27 28 28 28 29 28 27 26 27 28 28 28 29 29 30 28 23 23 23 22 21 20 20 21 21 22 23 23 25 26 27 28 27 26 26 25 25 23 22 21 22 21 20 19 19 18 17 16 15 15 15 15 15 15 16 16 15 16 15 16 15 15 17 17 18 19 18 18 20 18 19 21 19 18 20 21 22 22 20 18 17 16 16 16 16
26 26 25 25 26 28 28 29 28 28 28 28 29 30 30 31 32 31 26 22 24 25 23 22 21 20 21 21 22 23 23 24 25 26 27 27 27 25 25 25 24 22 21 21 21 20 19 18 17 16 16 16 15 15 16 15 15 16 15 15 15 14 16 17 17 18 19 20 20 19 20 21 21 23 23 19 19 22 23 23 23 22 20 18 17 17 16 17
25 26 25 25 25 26 28 28 28 29 30 30 31 31 32 34 34 28 22 23 26 26 24 22 21 21 21 22 23 24 24 25 25 25 26 27 27 26 26 26 24 23 22 21 22 21 20 20 18 18 17 17 17 16 16 16 15 15 15 15 15 14 15 17 18 18 19 20 21 20 21 22 24 28 26 22 22 24 25 25 25 24 22 20 19 18 18 18
25 25 26 25 25 26 27 28 28 29 30 32 33 33 35 37 33 25 22 24 27 27 25 23 22 21 21 22 23 23 24 25 25 26 26 27 27 27 27 27 26 25 24 24 23 22 22 21 20 20 20 18 18 17 17 16 15 15 16 16 16 16 16 16 17 18 19 20 21 21 23 24 27 29 27 25 25 26 27 27 27 26 25 24 23 21 21 20
25 26 26 26 26 26 27 27 28 28 30 33 34 36 38 36 30 24 23 25 27 27 26 24 24 22 22 23 23 23 24 25 25 26 27 27 27 26 26 26 26 26 25 25 24 24 23 22 21 22 21 20 19 18 18 17 16 18 18 19 19 19 19 18 18 19 18 18 20 22 24 26 28 27 25 25 27 27 28 28 28 28 27 27 26 25 23 22
26 26 26 27 27 27 27 28 28 29 30 33 35 38 38 33 28 26 26 26 27 27 25 24 25 24 23 23 23 24 25 24 24 25 26 26 26 25 25 25 26 26 26 25 24 24 23 23 23 22 21 21 21 21 21 19 19 20 20 21 21 19 20 19 19 21 20 21 23 23 23 25 27 27 27 27 28 28 29 30 30 30 29 28 28 28 27 26
26 26 26 27 27 28 28 29 29 30 31 33 36 38 37 32 29 28 29 29 29 28 26 26 26 26 26 24 23 24 25 24 24 24 24 24 24 24 24 24 25 25 25 24 22 22 22 21 22 22 23 24 23 23 23 22 22 22 21 22 19 19 21 21 20 21 21 22 24 23 24 24 24 26 28 29 30 31 31 31 31 31 31 31 30 30 30 30
27 27 27 28 28 28 29 30 31 31 33 35 36 37 35 32 31 30 30 31 31 29 28 28 29 28 27 26 24 24 25 24 25 25 24 24 23 23 23 24 25 24 25 24 23 23 22 21 21 23 25 25 24 25 25 25 26 23 23 23 19 19 22 22 22 22 21 21 23 23 24 24 23 24 25 27 29 31 32 33 33 33 33 33 32 33 33 33
28 28 28 29 29 29 30 31 31 32 35 36 36 35 33 32 31 31 31 32 33 32 31 31 31 29 28 28 26 25 25 24 26 26 25 25 25 25 24 24 25 25 26 27 27 25 23 23 21 22 24 25 26 27 25 26 27 26 25 25 24 23 21 21 21 21 21 21 22 23 22 22 23 25 23 23 25 27 28 30 32 32 32 33 32 32 32 32
28 28 29 29 29 30 30 31 32 33 35 36 35 35 33 31 32 32 32 33 34 35 34 34 32 31 30 30 29 27 26 26 27 27 27 27 27 27 26 25 25 26 26 28 29 27 26 26 23 22 24 25 26 27 26 25 26 27 26 26 26 26 24 22 22 20 20 19 19 20 21 21 21 22 22 21 21 22 24 26 27 28 28 29 29 29 29 28
27 28 29 29 29 29 30 31 32 34 35 35 36 36 34 32 32 33 34 34 35 37 37 35 34 33 32 31 30 30 29 28 28 28 29 28 28 28 28 27 27 26 26 28 28 29 28 28 26 25 24 23 25 26 27 27 26 24 24 23 23 23 23 23 24 24 23 21 20 18 18 19 18 18 20 20 20 21 22 23 24 24 24 25 26 26 26 26
26 27 28 29 29 29 29 30 31 33 35 36 37 37 36 34 33 34 36 36 36 37 37 36 35 34 33 32 32 32 31 29 28 28 29 29 28 29 29 29 29 29 29 29 29 30 30 29 29 29 27 26 26 25 26 28 28 27 27 25 23 22 22 22 22 23 24 23 23 20 18 19 17 16 18 18 19 20 20 21 22 21 21 21 22 23 23 23
25 25 26 27 27 27 26 26 27 30 34 36 36 36 37 36 35 36 37 38 37 37 36 36 36 35 34 34 33 32 32 31 29 28 28 28 28 28 28 29 30 31 32 32 32 32 32 32 31 30 29 30 29 27 28 29 29 31 32 31 29 27 26 24 23 23 21 21 22 21 20 21 18 16 16 16 17 18 19 20 19 18 18 18 19 19 19 20
25 25 25 24 24 24 23 22 22 26 30 32 32 34 36 37 37 36 38 39 38 37 36 35 35 35 34 33 33 33 32 31 30 29 27 27 27 27 27 27 28 30 32 34 34 33 34 34 33 32 31 31 30 31 31 30 31 32 32 32 33 32 32 30 27 26 24 22 21 19 20 22 19 17 17 16 16 17 18 19 18 18 17 18 18 18 17 18
26 26 26 24 23 22 22 21 20 21 25 27 28 29 31 35 37 37 38 39 39 37 35 33 32 32 33 33 34 33 33 32 31 31 29 28 27 27 26 27 28 29 30 31 32 33 35 36 35 35 34 31 31 32 31 30 31 32 31 33 34 35 34 32 30 28 28 27 24 22 22 21 18 18 19 18 17 18 18 19 19 18 18 18 19 18 17 17
27 28 27 25 21 19 19 20 20 20 21 24 26 26 28 32 35 37 37 38 38 37 35 33 31 30 31 32 34 34 33 33 32 31 31 30 29 27 26 26 27 28 28 28 28 29 31 35 38 39 38 36 35 34 31 29 29 30 31 33 34 35 34 33 30 28 27 27 26 24 24 22 20 19 19 20 19 19 19 19 19 19 18 19 19 19 18 18
28 28 26 19 13 10 11 14 17 18 19 21 23 25 28 32 33 34 35 36 36 36 34 33 31 30 30 30 32 34 33 34 33 32 32 31 30 28 27 26 26 26 27 27 27 26 27 33 40 42 42 42 40 36 32 30 29 30 31 32 33 34 33 33 31 28 26 25 24 23 24 24 23 23 22 22 22 21 21 21 20 19 19 19 19 19 19 19
29 27 22 11 2 3 2 7 11 14 16 18 20 22 26 30 31 31 33 33 33 34 33 32 30 29 29 28 30 33 34 34 34 33 33 32 31 30 28 27 26 25 26 26 26 25 25 29 37 42 44 45 43 38 35 34 33 32 32 31 32 32 32 32 32 31 30 28 26 26 25 25 25 26 25 25 24 23 23 23 22 21 21 21 21 21 21 21
29 25 19 7 2 5 3 5 8 11 15 15 17 21 24 27 28 28 29 29 30 31 30 29 28 27 27 27 28 30 33 34 35 34 34 33 32 31 30 28 25 24 24 24 25 27 26 25 26 29 34 42 45 42 39 36 36 35 34 33 32 32 32 32 32 32 32 30 30 30 28 27 27 27 27 27 26 25 25 25 25 24 23 23 23 23 24 24
29 23 16 5 3 3 3 6 5 7 14 14 16 21 23 24 25 25 25 26 27 27 27 27 26 25 24 25 26 27 30 33 33 33 34 33 32 32 30 28 25 23 22 21 21 24 26 24 21 18 19 27 36 40 40 39 38 38 37 37 36 35 34 33 32 32 32 32 33 33 32 31 31 30 29 29 29 28 28 27 27 27 26 26 26 26 27 28
30 23 17 7 1 1 3 6 5 3 11 13 14 20 21 21 22 21 22 23 23 24 24 24 24 23 23 23 23 24 27 29 31 32 33 32 32 32 31 29 27 27 26 23 19 20 21 22 22 20 18 18 21 25 30 33 36 38 38 38 39 39 38 36 34 34 34 35 35 35 35 35 35 34 33 33 32 31 30 30 31 31 31 30 30 30 31 31
31 26 20 13 5 1 2 3 13 14 11 12 12 17 18 18 20 19 18 19 20 21 22 22 23 23 22 22 21 22 23 26 28 29 31 31 31 31 31 30 29 30 30 28 26 24 23 22 23 24 23 22 20 19 20 23 27 30 31 33 35 37 37 37 37 37 37 38 38 38 39 39 38 38 37 36 35 34 34 34 34 35 35 35 35 35 35 35
Wind_Direction
287 286 285 283 281 279 276 273 270 267 264 263 263 263 264 265 266 266 266 266 266 266 265 264 263 261 259 256 254 253 251 250 249 249 249 248 248 248 248 248 248 248 249 249 248 247 247 246 245 245 246 246 246 245 244 243 241 241 239 237 232 231 231 232 237 239 243 248 244 241 241 239 241 241 241 246 246 242 243 245 244 247 250 252 252 251 252 257
287 286 285 283 281 278 275 273 270 267 264 261 259 260 261 262 263 263 264 264 265 265 265 264 263 262 260 257 255 253 251 250 248 248 248 247 247 246 247 247 247 247 247 247 246 246 244 243 242 242 243 243 243 244 243 241 241 240 237 232 226 226 228 230 237 242 245 247 245 242 240 239 239 240 240 244 249 247 245 246 249 249 249 252 252 252 256 263
286 286 285 284 281 278 275 272 270 267 264 261 258 257 257 258 259 260 261 262 263 263 263 263 263 261 259 257 255 252 251 250 248 247 247 246 246 245 245 245 245 246 246 245 244 244 242 241 239 239 240 241 241 241 240 240 240 238 234 227 224 226 226 229 237 243 245 245 245 242 240 241 239 241 241 240 248 253 251 250 252 252 251 251 252 256 262 268
287 287 287 285 284 281 277 273 270 267 265 262 259 256 255 255 256 257 258 260 261 261 260 260 259 258 257 256 254 252 251 249 248 246 246 245 245 245 244 244 244 244 244 244 243 243 242 240 238 238 239 240 239 239 239 237 237 237 233 226 227 228 225 229 236 242 245 243 243 241 239 242 242 243 243 240 243 248 248 247 249 251 253 253 254 260 267 271
289 288 287 286 284 283 280 276 272 268 265 263 261 258 255 253 254 254 255 257 259 259 258 257 255 254 253 252 252 251 251 250 248 247 245 245 245 245 244 244 243 243 243 243 243 242 242 240 238 237 238 239 238 238 239 236 236 235 231 228 228 227 226 230 236 239 242 241 240 240 235 238 242 243 244 241 237 239 241 243 247 250 252 254 258 264 270 273
288 288 287 286 284 282 281 278 275 271 267 264 262 261 257 253 251 252 252 254 256 257 257 255 254 252 251 249 248 248 249 250 249 248 247 245 244 244 243 243 243 243 243 243 243 243 242 240 239 237 237 239 237 237 238 235 234 231 228 228 225 225 227 231 234 237 240 239 238 239 234 232 236 239 240 238 238 242 244 246 251 255 256 259 264 268 270 271
287 287 286 285 284 282 280 279 277 274 271 267 264 262 260 256 252 250 250 251 253 255 255 255 254 253 252 250 249 247 247 248 248 247 247 245 244 244 243 243 243 243 243 243 243 242 242 241 239 237 237 238 236 236 237 234 232 229 226 226 225 226 228 230 233 234 236 238 238 238 236 232 232 235 238 240 241 245 247 249 254 257 260 263 265 265 264 264
286 286 286 285 284 283 281 279 278 276 273 270 267 263 261 258 254 250 249 250 251 253 253 254 253 253 254 253 252 250 248 246 246 246 246 246 246 245 245 244 244 244 243 243 243 242 242 241 239 237 237 237 236 236 236 234 233 230 226 226 226 226 227 231 232 230 232 237 239 237 236 234 232 233 237 240 243 245 247 250 253 255 258 260 259 258 257 258
285 285 286 285 285 284 283 282 280 277 275 272 269 266 262 260 257 252 249 249 250 252 252 253 253 253 254 255 256 254 251 247 244 243 244 245 245 246 246 246 245 245 244 243 243 242 241 240 239 237 236 237 236 237 236 235 234 229 226 226 225 224 227 231 230 227 230 235 239 238 236 236 232 233 238 240 242 244 245 248 251 253 256 256 257 257 257 258
284 284 284 284 284 284 284 285 284 281 277 274 271 268 264 260 258 255 251 249 249 251 252 252 253 253 254 255 256 256 253 249 244 242 241 243 243 244 245 246 246 245 244 244 243 242 242 241 241 240 239 238 236 237 236 235 235 230 227 227 224 224 229 232 230 227 230 233 237 237 235 236 233 235 240 237 238 242 245 248 250 252 254 256 257 257 258 259
283 283 283 283 283 283 283 285 286 286 282 277 273 270 266 262 258 255 253 250 249 250 251 252 252 252 253 254 254 254 253 249 245 241 239 240 242 242 243 245 245 245 244 243 244 244 244 244 243 242 241 240 238 238 236 236 236 231 229 229 225 225 229 233 231 227 228 230 234 236 236 237 235 236 239 235 237 241 243 247 249 251 253 254 254 254 256 258
281 282 282 282 282 282 282 283 285 288 288 284 278 272 268 264 259 254 252 250 249 249 250 251 252 252 252 252 251 250 249 247 244 241 239 239 241 242 242 243 244 245 245 244 245 246 246 245 243 241 240 239 238 237 235 235 234 231 229 228 225 225 228 231 230 227 227 229 232 235 237 239 238 238 239 236 238 239 240 244 247 248 250 248 248 250 252 255
279 280 281 281 281 281 281 282 283 286 289 290 286 278 271 266 261 255 251 250 248 248 248 250 251 251 251 250 249 247 246 244 242 240 238 238 240 242 242 243 244 244 245 246 246 246 246 244 242 240 238 236 235 234 234 233 232 230 228 227 225 224 227 229 229 227 226 228 231 233 235 239 241 238 237 238 238 239 240 243 245 244 244 242 242 246 249 252
278 278 279 280 280 280 280 281 283 283 286 290 290 285 277 269 263 256 251 249 248 247 247 248 250 250 250 249 247 246 244 243 242 239 238 238 238 240 241 242 243 244 245 247 247 246 244 242 240 238 235 234 234 233 233 231 230 228 225 225 223 222 226 227 227 227 226 227 227 230 232 235 240 236 234 237 235 238 241 242 243 241 239 240 241 244 248 252
275 276 277 278 278 278 279 280 282 282 283 286 290 289 282 273 264 257 251 248 247 246 246 247 249 249 250 249 246 245 244 242 241 239 238 237 238 239 241 241 242 243 244 246 246 244 243 241 239 237 234 232 231 231 231 230 228 226 222 222 222 221 226 225 224 228 229 226 225 228 229 231 238 235 232 237 235 236 242 241 240 238 237 240 241 244 250 255
272 274 275 276 276 277 277 278 280 282 282 283 286 288 285 276 266 258 252 248 247 246 245 246 247 248 249 248 245 244 244 242 240 238 237 237 237 239 239 240 240 240 242 243 243 242 241 240 238 237 235 232 230 229 229 228 226 224 220 220 220 220 225 226 225 228 230 229 226 227 228 230 235 233 233 238 239 239 241 241 241 239 238 239 241 246 252 256
270 270 272 273 274 275 275 276 277 280 282 281 282 284 283 277 268 260 253 248 247 246 244 244 246 247 248 248 245 244 244 242 239 238 237 237 237 237 236 236 237 239 240 241 240 240 239 238 237 235 233 231 228 227 227 227 225 221 218 218 218 217 222 225 226 227 229 231 230 228 228 231 233 232 233 238 239 240 241 242 243 241 240 239 241 247 251 256
268 268 269 270 271 272 273 274 274 277 280 281 279 279 278 274 269 262 255 249 246 245 245 244 245 247 248 247 246 245 244 242 240 239 237 237 236 234 232 232 234 235 237 238 237 236 235 234 234 232 231 230 228 227 227 226 223 219 216 216 215 216 219 223 225 226 227 231 232 232 231 233 234 231 233 237 238 240 241 242 243 243 243 241 242 246 250 256
267 268 267 267 268 269 270 271 272 273 276 279 278 275 273 271 267 263 257 251 247 245 245 245 245 247 248 247 246 246 244 241 241 239 237 236 233 230 230 230 230 231 233 234 234 232 231 231 232 231 230 228 227 226 225 225 223 219 217 215 214 215 217 222 226 226 227 232 234 236 235 235 235 233 234 238 238 240 241 241 243 244 245 244 245 248 251 255
266 267 267 266 265 265 267 268 269 269 271 274 275 272 269 267 265 263 259 254 250 247 247 247 247 248 248 247 246 245 243 240 239 238 236 233 230 228 229 230 229 229 229 231 231 230 229 229 229 228 227 226 224 224 227 228 226 224 221 219 217 217 218 224 228 228 229 233 235 237 238 237 237 235 235 238 239 241 242 242 244 245 247 248 248 248 250 253
265 265 266 266 264 263 263 265 266 266 267 268 271 270 268 265 264 262 259 256 252 248 248 247 247 248 246 245 245 244 242 239 237 236 232 229 228 227 228 228 227 226 225 226 227 227 228 226 225 225 226 226 226 226 228 229 229 227 225 223 222 221 222 227 230 231 232 233 236 237 238 239 238 238 237 238 240 242 243 244 245 245 246 245 244 244 246 249
265 265 265 265 265 263 262 263 263 263 263 263 265 267 267 265 263 261 258 258 254 248 247 248 247 247 246 244 245 243 241 238 235 231 226 224 225 225 225 226 225 224 222 222 222 223 224 223 223 225 227 228 228 226 227 228 228 227 226 226 227 225 228 233 235 235 235 235 237 238 238 240 240 240 240 240 241 243 244 243 241 239 238 237 236 238 241 245
265 265 265 265 265 264 262 262 262 261 261 260 260 262 264 264 263 260 257 258 257 248 245 247 247 246 245 244 244 242 240 237 231 225 221 221 223 224 224 225 224 224 222 221 220 220 222 223 225 228 228 229 230 228 227 228 226 225 225 225 227 228 230 234 236 236 236 236 237 237 237 240 241 240 239 239 239 239 238 235 233 234 233 231 231 234 239 244
265 266 266 266 266 264 262 262 262 260 259 258 256 257 260 262 262 260 256 256 258 252 244 246 247 246 245 243 242 241 238 234 226 220 218 220 222 224 225 225 225 225 223 222 220 220 223 225 227 228 227 228 229 230 229 229 227 224 223 222 226 229 227 229 234 236 238 237 234 232 233 236 237 237 235 233 232 230 226 225 228 232 233 232 234 237 242 245
267 267 267 267 266 265 262 261 261 260 258 256 254 254 256 258 258 258 255 253 256 254 246 244 246 245 243 240 239 237 234 229 222 218 216 218 221 223 225 225 225 223 222 222 221 223 226 226 226 226 227 227 229 231 231 229 227 223 221 221 225 229 229 232 236 237 239 237 230 225 227 234 235 230 228 225 222 221 220 222 227 232 234 233 235 237 237 239
268 267 267 266 266 265 263 261 261 259 258 256 253 252 253 255 255 255 254 251 252 252 248 245 245 244 240 235 234 233 229 224 220 218 217 219 222 225 226 225 224 222 221 222 223 225 225 223 224 226 227 228 228 230 230 228 225 224 221 220 224 228 231 235 235 233 232 229 224 219 218 227 232 227 226 224 220 220 219 221 228 231 230 226 224 225 228 233
268 268 267 266 265 264 263 261 260 259 258 256 253 251 251 252 253 251 252 251 250 249 247 245 243 242 239 234 231 230 226 220 219 219 219 220 221 223 225 225 225 225 223 224 226 227 224 223 223 225 226 227 225 226 225 222 219 220 221 221 222 226 230 232 231 227 225 221 217 215 215 223 229 228 228 227 225 226 223 221 227 226 217 214 217 222 227 228
269 267 266 265 264 262 261 260 259 258 257 255 252 250 250 250 250 249 249 250 250 248 245 244 241 239 238 234 230 228 225 221 218 218 219 220 220 222 224 224 224 225 224 224 226 225 223 223 222 222 222 221 221 221 218 215 214 215 218 218 220 223 227 229 228 226 225 223 216 215 218 222 226 227 226 227 229 228 224 220 221 218 210 211 219 225 229 227
269 267 266 265 264 261 259 258 258 257 256 255 253 250 249 249 248 248 247 247 247 247 245 243 241 238 236 234 230 227 225 223 220 219 221 222 222 223 225 225 225 226 225 224 226 225 223 223 222 221 219 217 219 219 216 214 215 216 217 218 220 223 226 227 226 227 226 224 219 218 220 217 220 225 223 225 227 222 220 219 216 214 214 220 226 230 232 229
269 267 266 264 263 261 258 256 256 256 255 254 253 250 249 248 247 246 245 243 244 246 245 243 240 237 235 233 231 229 227 226 224 224 225 225 224 224 224 225 226 227 226 228 231 231 228 227 226 224 223 221 222 221 219 217 217 219 220 221 223 225 228 229 228 229 229 226 225 224 222 216 217 224 224 224 227 221 216 216 214 214 219 224 229 233 235 234
270 268 266 264 262 261 258 255 254 254 254 253 252 250 248 247 245 244 243 241 242 243 243 242 239 235 232 230 230 230 229 228 227 227 229 228 227 227 226 227 227 227 229 231 234 235 234 232 231 230 227 226 226 225 225 223 221 224 224 225 228 228 229 229 227 230 230 229 228 224 225 223 220 225 228 226 225 221 218 217 217 218 222 223 227 233 239 243
272 270 267 265 263 261 259 255 253 251 250 250 249 248 247 245 244 243 242 241 242 241 240 240 238 233 230 228 228 229 229 230 230 230 231 231 230 229 229 230 229 228 230 233 236 236 238 238 235 234 232 228 228 228 230 229 225 226 226 223 225 226 226 224 225 231 231 230 229 223 224 227 223 225 231 227 222 222 224 225 225 228 228 225 226 233 241 248
276 274 271 268 264 262 260 257 252 249 247 246 246 246 245 244 243 242 239 239 241 240 238 237 236 233 230 227 226 227 228 229 230 231 232 232 231 229 229 229 227 225 225 229 233 235 238 239 236 234 233 230 228 228 231 233 232 232 229 225 224 222 224 225 227 232 232 232 235 231 229 231 228 230 234 232 227 225 229 232 234 236 234 230 230 234 241 249
278 276 274 270 267 263 261 258 254 249 246 245 245 244 243 244 243 240 235 237 240 240 238 235 233 232 229 227 226 226 227 229 229 230 231 232 232 231 230 230 228 224 222 224 227 230 232 236 238 237 235 232 231 230 231 233 234 234 230 227 222 219 225 227 226 232 234 235 238 237 234 234 234 234 234 233 232 231 233 237 238 240 238 236 237 239 243 249
281 278 275 272 269 265 262 259 255 251 247 245 244 244 243 244 243 237 232 235 239 239 237 234 232 230 228 228 226 225 227 229 228 228 230 232 233 234 234 233 231 229 227 225 226 229 230 233 236 237 237 235 232 232 231 229 230 233 233 230 225 222 229 232 231 234 234 236 239 237 236 237 238 239 237 234 235 235 237 239 241 242 242 242 242 243 246 249
284 281 278 274 271 267 262 259 255 251 248 245 244 244 244 245 242 235 229 230 235 236 235 234 232 229 228 228 227 226 227 229 229 229 230 232 234 234 234 234 233 232 230 228 228 231 232 235 239 239 239 237 233 233 233 227 225 232 239 240 235 233 236 239 242 243 239 240 243 241 241 242 242 243 242 239 238 238 239 240 241 243 244 245 245 245 247 250
287 284 280 276 272 268 263 259 255 252 249 246 244 245 245 244 240 235 228 226 230 233 231 230 231 228 227 226 226 227 226 227 230 230 230 231 232 233 233 233 233 231 231 228 227 228 228 233 239 236 234 235 233 234 235 231 226 227 237 242 241 242 242 238 241 245 244 244 246 245 246 247 245 244 243 240 240 240 240 241 243 244 246 246 247 247 247 249
290 286 282 277 273 268 263 259 254 251 248 246 245 245 244 241 238 235 229 225 226 228 227 227 228 227 226 225 224 225 224 225 228 229 230 230 230 231 230 231 231 230 230 228 225 226 224 225 233 234 232 232 231 232 235 236 232 226 230 237 238 241 246 244 242 245 249 250 250 249 249 250 248 244 241 238 237 239 240 243 245 246 249 250 250 251 251 252
290 286 282 278 273 268 263 259 255 251 248 247 246 245 244 240 237 234 231 226 224 225 224 225 227 225 225 224 223 224 222 222 226 228 230 230 229 229 229 231 231 229 229 227 225 226 224 223 229 234 233 231 231 231 231 237 239 235 232 234 235 236 241 246 245 245 247 249 251 252 250 247 244 242 241 238 237 239 240 242 245 247 249 251 252 253 252 252
292 287 282 277 273 269 263 259 255 251 248 247 245 244 242 239 235 232 231 227 223 223 223 223 224 223 223 224 224 225 222 222 225 225 228 231 231 231 230 231 234 234 231 229 227 226 224 222 225 233 234 231 232 232 229 231 237 239 238 237 238 239 240 243 244 241 238 239 245 249 247 243 240 240 242 240 237 237 237 239 241 243 246 248 250 251 250 249
295 290 285 279 274 269 264 259 255 251 248 245 242 240 238 235 231 228 228 227 224 223 222 222 222 222 222 222 224 226 224 224 226 226 228 231 232 233 232 230 233 235 235 234 230 227 227 225 224 231 235 231 232 234 232 231 232 233 237 238 238 240 240 243 245 242 237 235 238 243 246 245 238 234 238 237 235 236 237 239 241 242 244 246 247 248 248 247
303 299 293 287 280 273 266 260 254 249 246 243 239 237 234 231 228 225 225 225 223 223 222 221 221 222 222 222 223 226 226 225 227 228 230 232 233 235 235 232 232 233 234 236 234 231 230 227 224 228 232 232 235 237 235 235 234 230 232 233 232 233 235 237 240 242 240 238 238 241 244 244 237 232 235 235 233 235 235 236 239 240 242 245 246 247 247 246
311 308 301 293 284 276 266 258 252 247 244 241 238 235 231 227 225 223 222 223 223 222 221 220 220 220 221 222 224 226 227 226 227 228 231 233 235 236 237 237 236 234 233 234 236 233 230 228 227 229 232 236 239 240 237 236 233 230 231 232 230 231 233 232 233 237 239 238 238 239 240 240 236 232 235 234 230 230 230 231 233 235 239 243 246 246 246 245
318 316 310 299 286 275 265 256 250 245 241 239 236 233 228 225 223 221 221 222 223 223 221 220 220 219 220 221 224 226 228 227 228 229 230 233 236 237 239 240 241 240 237 235 235 234 232 231 230 230 232 237 239 239 238 236 232 231 234 234 231 232 234 235 235 236 238 237 237 236 238 239 235 231 233 231 227 224 225 228 232 235 239 243 245 245 243 242
325 322 316 305 291 275 262 254 251 247 240 236 232 229 225 222 221 220 220 221 222 223 223 221 221 221 220 221 223 226 228 228 229 230 230 232 235 237 240 242 244 245 244 242 240 238 237 236 233 232 232 234 236 238 239 238 237 237 237 235 233 234 236 237 237 239 240 240 239 236 237 238 232 227 229 229 226 226 228 231 236 239 242 243 244 245 244 242
331 326 319 310 296 278 261 251 246 244 239 234 230 226 221 218 218 218 219 220 221 222 223 222 222 222 222 222 223 225 228 230 231 231 232 234 236 237 240 243 245 246 247 248 247 244 244 243 239 236 234 232 234 238 240 241 241 240 238 235 234 234 235 236 237 239 240 242 241 236 236 239 236 231 232 233 230 230 232 234 238 240 241 242 243 245 247 247
335 330 325 315 301 287 264 246 239 238 235 231 229 226 220 216 215 216 217 218 220 222 223 223 223 223 223 223 224 225 228 230 233 234 235 237 239 239 239 241 244 246 247 249 248 247 251 251 244 239 236 233 234 236 236 237 237 238 238 237 236 235 235 235 236 237 237 238 238 236 234 238 240 239 238 237 236 236 237 237 239 240 239 239 241 242 245 247
343 338 332 316 302 31 310 233 224 226 228 228 225 221 216 212 212 214 215 217 219 220 222 223 223 223 224 225 225 225 227 230 233 236 238 239 241 242 242 242 244 246 247 248 246 244 248 249 243 239 236 234 232 231 232 234 234 235 236 235 235 235 235 235 236 237 237 235 236 238 236 237 241 242 241 240 239 240 240 240 239 239 239 239 239 240 241 242
353 349 342 318 166 49 19 200 198 212 219 220 216 212 208 206 207 210 213 215 217 219 221 222 222 223 224 225 226 225 227 229 232 236 239 241 243 245 246 246 247 249 249 248 246 244 245 245 242 240 238 235 231 228 228 232 234 235 235 234 234 234 234 235 237 239 241 240 239 240 240 239 241 242 242 241 242 243 243 241 240 239 240 241 241 242 242 242
3 3 0 339 230 14 57 155 173 219 216 210 205 202 200 199 202 206 209 212 215 217 219 221 221 222 223 225 226 226 227 230 232 235 239 241 244 247 248 248 247 249 251 249 246 243 244 245 245 243 239 236 232 229 228 231 234 235 235 234 234 234 234 235 236 240 243 243 244 244 244 243 241 241 242 242 243 245 245 243 241 240 240 242 243 244 244 245
12 17 22 27 238 273 146 144 77 117 185 188 189 191 192 192 195 201 205 209 213 215 216 219 220 222 223 225 227 227 228 230 232 233 237 240 242 245 248 247 245 246 249 249 247 243 242 244 248 250 247 241 237 233 231 233 235 238 239 237 234 233 233 235 237 240 242 244 245 246 246 245 244 243 243 244 244 246 247 246 243 241 241 242 243 245 245 246
18 24 33 43 55 85 180 70 48 70 139 170 175 181 186 189 191 196 200 206 212 214 216 218 219 222 225 227 229 228 229 231 232 234 236 239 242 244 246 247 246 247 249 250 251 252 252 251 252 254 253 251 248 245 241 237 235 236 238 240 238 236 236 238 239 241 243 245 245 246 246 246 245 243 243 243 244 245 246 247 246 245 244 245 246 246 247 247